Вернуться в каталог

ARIANE 44P R/B

АктивенGTO
NORAD 21223·ROCKET BODY·🇫🇷 France

Запущен Apr 4, 1991 с Guiana Space Centre

Loading…

TLE

УстаревающийSource: Space-Track

Эпоха: Sep 14, 2026, 16:51 UTC

1 21223U 91026B   26257.70242982  .00000227  00000-0  86298-3 0  9991
2 21223   3.3522 182.6938 7173823  81.8165 346.9035  2.32344725274863

Отслеживайте ARIANE 44P R/B в реальном времени с AllMySat

Download on the App Store